Deering, AK

12:36 AM AKDT on September 29, 2016 (GMT -0800)
Deering (New)

Weather History for PADE - February, 2014

Change the Weather History Date:

Thursday, February 27, 2014

  Actual Average (PAOT) Record (PAOT)
Temperature  
Mean Temperature 31 °F -  
Max Temperature 35 °F - 35 °F (1945)
Min Temperature 27 °F - -42 °F (1956)
Degree Days  
Heating Degree Days 34 65  
Month to date heating degree days 1778  
Since 1 July heating degree days 10177  
Cooling Degree Days 0    
Month to date cooling degree days  
Year to date cooling degree days  
Moisture  
Dew Point 21 °F    
Average Humidity 68    
Maximum Humidity 78    
Minimum Humidity 52    
Precipitation  
Precipitation 0.00 in 0.03 in 0.60 in (2009)
Month to date precipitation 0.64  
Year to date precipitation 1.26  
Snow  
Snow 0.00 in 0.40 in 6.00 in (2009)
Month to date snowfall 9.3  
Since 1 July snowfall 47.3  
Snow Depth -    
Sea Level Pressure  
Sea Level Pressure 29.67 in    
Wind  
Wind Speed 8 mph (East)    
Max Wind Speed 14 mph    
Max Gust Speed -    
Visibility 10 miles    
Events      
T = Trace of Precipitation, MM = Missing Value Source: NWS Daily Summary

Daily Weather History Graph

Daily Weather History Graph

Search for Another Location

Airport or City:

Trip Planner

Search our weather history database for the weather conditions in past years. The results will help you decide how hot, cold, wet, or windy it might be!

Date:

Astronomy

Feb. 27, 2014 Rise Set
Actual Time 9:10 AM AKST 6:58 PM AKST
Civil Twilight 8:18 AM AKST 7:50 PM AKST
Nautical Twilight 7:19 AM AKST 8:50 PM AKST
Astronomical Twilight 6:18 AM AKST 9:51 PM AKST
Moon 8:18 AM AKST (2/27) 5:20 PM AKST (2/27)
Length of Visible Light 11h 32m
Length of Day
9h 47m
Waning Crescent, 3% of the Moon is Illuminated
Feb 27
Waning Crescent
Feb 28
New
Mar 8
First Quarter
Mar 16
Full
Mar 23
Last Quarter

Hourly Weather History & Observations

Time (AKST) Temp. Windchill Dew Point Humidity Pressure Visibility Wind Dir Wind Speed Gust Speed Precip Events Conditions
12:53 AM 28.9 °F 18.6 °F 18.0 °F 64% 29.66 in 10.0 mi East 12.7 mph - N/A   Overcast
1:53 AM 27.0 °F 19.5 °F 18.0 °F 69% 29.66 in 10.0 mi East 6.9 mph - N/A   Overcast
2:53 AM 28.0 °F 18.6 °F 19.0 °F 69% 29.66 in 10.0 mi East 10.4 mph - N/A   Overcast
3:53 AM 28.0 °F 19.3 °F 19.0 °F 69% 29.65 in 10.0 mi East 9.2 mph - N/A   Clear
4:53 AM 28.0 °F - 18.0 °F 66% 29.66 in 10.0 mi Calm Calm - N/A   Mostly Cloudy
5:53 AM 28.9 °F 20.4 °F 19.0 °F 67% 29.65 in 10.0 mi SE 9.2 mph - N/A   Overcast
6:53 AM 32.0 °F 24.8 °F 19.0 °F 59% 29.65 in 10.0 mi East 8.1 mph - N/A   Overcast
7:53 AM 35.1 °F - 19.0 °F 52% 29.65 in 10.0 mi Calm Calm - N/A   Overcast
8:53 AM 33.1 °F 26.9 °F 21.0 °F 61% 29.66 in 10.0 mi SSE 6.9 mph - N/A   Overcast
9:53 AM 33.1 °F 25.5 °F 19.9 °F 59% 29.66 in 10.0 mi ESE 9.2 mph - N/A   Overcast
10:53 AM 34.0 °F 28.0 °F 21.0 °F 59% 29.67 in 10.0 mi Variable 6.9 mph - N/A   Overcast
11:53 AM 30.0 °F 23.2 °F 21.9 °F 72% 29.68 in 10.0 mi ENE 6.9 mph - N/A   Overcast
12:53 PM 30.9 °F 23.5 °F 21.9 °F 69% 29.68 in 10.0 mi ESE 8.1 mph - N/A   Partly Cloudy
1:53 PM 32.0 °F - 23.0 °F 69% 29.69 in 10.0 mi Calm Calm - N/A   Overcast
2:53 PM 33.1 °F 27.7 °F 23.0 °F 66% 29.69 in 10.0 mi NNE 5.8 mph - N/A   Mostly Cloudy
3:53 PM 30.0 °F 23.2 °F 23.0 °F 75% 29.68 in 10.0 mi ENE 6.9 mph - N/A   Overcast
4:53 PM 30.0 °F 24.1 °F 23.0 °F 75% 29.69 in 10.0 mi NE 5.8 mph - N/A   Mostly Cloudy
5:53 PM 28.0 °F 20.8 °F 21.9 °F 78% 29.68 in 10.0 mi NE 6.9 mph - N/A   Partly Cloudy
6:53 PM 28.9 °F 19.2 °F 21.9 °F 75% 29.68 in 10.0 mi ENE 11.5 mph - N/A   Overcast
7:53 PM 28.0 °F 18.1 °F 21.0 °F 75% 29.67 in 10.0 mi ENE 11.5 mph - N/A   Scattered Clouds
8:53 PM 27.0 °F 15.6 °F 19.9 °F 75% 29.66 in 10.0 mi ENE 13.8 mph - N/A   Mostly Cloudy
9:53 PM 27.0 °F 18.0 °F 21.0 °F 78% 29.67 in 10.0 mi ENE 9.2 mph - 0.00 in   Overcast
10:53 PM 28.9 °F 21.9 °F 21.0 °F 72% 29.67 in 10.0 mi East 6.9 mph - N/A   Overcast
11:53 PM 34.0 °F 25.0 °F 21.0 °F 59% 29.67 in 10.0 mi SSE 12.7 mph - N/A   Overcast